Regional Weather Roundup
Issued by NWS

Home | Current Version | Previous Version | Text Only | Print | Product List | Glossary Off
Versions: 1 2 3 4 5 6 7 8 9 10 11 12 13 14 15 16 17 18 19 20 21 22 23 24 25 26 27 28 29 30 31 32 33 34 35 36 37 38 39 40 41 42 43 44 45 46 47 48 49 50

824
ASUS44 KMEG 240010
RWRTN
TENNESSEE HOURLY STATE WEATHER ROUNDUP
NATIONAL WEATHER SERVICE MEMPHIS TN
700 PM CDT MON MAY 23 2016

TNZ002-004-019-021-049-052-054-088>092-240100-
WEST TENNESSEE

CITY           SKY/WX    TMP DP  RH WIND       PRES   REMARKS
MEMPHIS INTL   PTSUNNY   81  48  31 SE8       29.93S
NWS MEMPHIS      N/A     80 N/A N/A MISG        N/A
JACKSON        CLOUDY    79  57  46 SE3       29.96S
DYERSBURG      CLOUDY    81  52  36 CALM      29.94S
UNION CITY     SUNNY     75  61  60 CALM      29.94S
PARIS          SUNNY     77  55  47 W3        29.96R
LEXINGTON      CLEAR     79  55  44 W5        29.96R
$$

TNZ008-025-027-028-033-062-065-066-240100-
NORTH MIDDLE TENNESSEE

CITY           SKY/WX    TMP DP  RH WIND       PRES   REMARKS
NASHVILLE      PTCLDY    79  43  27 N7        29.97S
CLARKSVILLE    CLEAR     76  54  46 E5        29.96S
SMYRNA         CLEAR     80  47  31 NE8       29.97S
COOKEVILLE     CLEAR     73  55  53 CALM      29.99R
CROSSVILLE     CLEAR     72  44  36 N3        30.02S
$$

TNZ061-075-076-078-094-096-097-240100-
SOUTH MIDDLE TENNESSEE

CITY           SKY/WX    TMP DP  RH WIND       PRES   REMARKS
FAYETTEVILLE   CLEAR     77  50  38 CALM      29.97S
TULLAHOMA      CLEAR     75  43  31 N5        29.99R
WINCHESTER     PTCLDY    77  48  36 N5        29.98R
MCMINNVILLE    CLEAR     75  52  43 NE5       29.99R
COLUMBIA       CLEAR     79  54  41 CALM      29.96R
SHELBYVILLE    PTCLDY    79  52  38 NE3       29.98R
$$

TNZ017-018-042-046-047-240100-
NORTHEAST TENNESSEE

CITY           SKY/WX    TMP DP  RH WIND       PRES   REMARKS
TRI CITIES     PTCLDY    69  49  48 CALM      30.03S
$$

TNZ012-013-036-069-073-074-240100-
CENTRAL EAST TENNESSEE

CITY           SKY/WX    TMP DP  RH WIND       PRES   REMARKS
KNOXVILLE      PTCLDY    73  46  38 E6        29.99R
OAK RIDGE      CLEAR     75  43  31 CALM      30.00R
GATLINBURG     CLEAR     72  48  43 NE3       30.00R
$$

TNZ083-085-099-240100-
SOUTHEAST TENNESSEE

CITY           SKY/WX    TMP DP  RH WIND       PRES   REMARKS
CHATTANOOGA    PTCLDY    80  49  33 E8        29.96R
$$

SKY/WX REPORTED AS FAIR MEANS FEW OR NO CLOUDS BELOW
12 THOUSAND FEET.





USA.gov is the U.S. government's official web portal to all federal, state and local government web resources and services.